Regional Weather Roundup
Issued by NWS

Home | Current Version | Previous Version | Text Only | Print | Product List | Glossary On
Versions: 1 2 3 4 5 6 7 8 9 10 11 12 13 14 15 16 17 18 19 20 21 22 23 24 25 26 27 28 29 30 31 32 33 34 35 36 37 38 39 40 41 42 43 44 45 46 47 48 49 50
000
ASUS43 KFSD 010610
RWRSD

WEATHER ROUNDUP FOR SOUTH DAKOTA
NATIONAL WEATHER SERVICE SIOUX FALLS SD
100 AM CDT SAT AUG 01 2015

NOTE: "FAIR" INDICATES FEW OR NO CLOUDS BELOW 12,000 FEET WITH NO
SIGNIFICANT WEATHER AND/OR OBSTRUCTIONS TO VISIBILITY.


SDZ001>005-009-010-012>017-010700-
NORTHWEST AND NORTH CENTRAL SOUTH DAKOTA

CITY           SKY/WX    TMP DP  RH WIND       PRES   REMARKS
BUFFALO          N/A     68  47  46 SE7       30.01S
FAITH            N/A     65  44  46 S14       30.07S
MOBRIDGE       CLEAR     70  54  56 E7        30.01F
$$

SDZ012>016-024>037-041>051-057-063-072>074-010700-
SOUTHWEST AND SOUTH CENTRAL SOUTH DAKOTA

CITY           SKY/WX    TMP DP  RH WIND       PRES   REMARKS
RAPID CTY ARPT CLEAR     68  54  60 SW5       30.12F
PIERRE         CLEAR     72  57  59 S12       30.04F
CUSTER         PTCLDY    65  49  56 E8        30.28F
ELLSWORTH AFB  CLEAR     68  55  61 S6        30.11F
PHILIP         TSTM      71  62  73 S9        30.06F
PINE RIDGE     PTCLDY    69  55  60 E8        30.12F
WINNER         FAIR      74  63  68 S8        30.10F
$$

SDZ004>011-016>023-039-040-010700-
NORTHEAST SOUTH DAKOTA

CITY           SKY/WX    TMP DP  RH WIND       PRES   REMARKS
ABERDEEN       CLEAR     63  57  81 CALM      30.02F
WATERTOWN      CLEAR     65  57  75 W8        30.04S
BROOKINGS      CLEAR     66  57  72 SW6       30.07S
SISSETON         N/A     62  59  90 N6        29.99S
$$

SDZ017-020-022-023-036>040-048>070-010700-
SOUTHEAST SOUTH DAKOTA

CITY           SKY/WX    TMP DP  RH WIND       PRES   REMARKS
SIOUX FALLS    CLEAR     71  63  75 SW3       30.06F
HURON          CLEAR     69  60  73 SW8       30.03F
CHAMBERLAIN    CLEAR     65  62  90 SE6       30.07F
MITCHELL       CLEAR     71  65  81 S8        30.06F
YANKTON        CLEAR     70  66  88 CALM      30.07S
$$

ABBREVIATIONS USED IN REMARKS
   TC - TEMPERATURE IN CELSIUS
  WCI - WIND CHILL INDEX
   HX - HEAT INDEX
  VSB - VISIBILITY




USA.gov is the U.S. government's official web portal to all federal, state and local government web resources and services.